Location: Hawks Ness
(60.2333°N, 1.1667°W)
Time: 00:33:30
(UTC+00:00)

Cosmos 2297 - Pass Details

Date: 22 October 2019
Orbit: 834 x 860 km, 71.0° (Epoch: 13 November)

Event Time Altitude Azimuth Distance (km) Brightness Sun altitude
Exits shadow 03:34:45 34° 318° (NW) 1,386 4.6 -25.8°
Maximum altitude 03:37:23 86° 231° (SW) 872 3.6 -25.5°
Drops below altitude 10° 03:43:09 10° 144° (SE) 2,495 6.3 -24.8°
Sets 03:45:35 0° 144° (SE) 3,427 7.0 -24.5°
